TXG607 KMIA-TAPA

Flight info

Callsign TXG607
Flight time N/A
Altitude 35000
Route KLADA2 BITAC Y290 HAGIT Y308 ACONY Y280 GABAR UG633 ANU
Aircraft B738/M-SDE2E3FGHIRWXY/LB1

Departure

Time 2026-05-04 15:29
Airport Miami International Airport (KMIA)

Arrival

Time N/A
Airport V. C. Bird International Airport (TAPA)
Time Latitude Longitude Altitude Speed Heading
2026-05-04 14:58 25.79122 -80.30644 16 ft 0 kts 269°
2026-05-04 15:19 25.79130 -80.30590 17 ft 4 kts 246°
2026-05-04 15:20 25.79144 -80.30567 18 ft 4 kts 206°
2026-05-04 15:20 25.79156 -80.30563 18 ft 0 kts 179°
2026-05-04 15:23 25.79154 -80.30563 15 ft 0 kts 179°
2026-05-04 15:23 25.79144 -80.30563 16 ft 3 kts 179°
2026-05-04 15:23 25.79104 -80.30563 15 ft 8 kts 180°
2026-05-04 15:24 25.78984 -80.30560 15 ft 7 kts 183°
2026-05-04 15:24 25.78876 -80.30567 15 ft 13 kts 205°
2026-05-04 15:25 25.78841 -80.30673 14 ft 16 kts 268°
2026-05-04 15:25 25.78832 -80.30829 15 ft 24 kts 266°
2026-05-04 15:25 25.78826 -80.30964 18 ft 27 kts 267°
2026-05-04 15:26 25.78785 -80.31380 18 ft 7 kts 214°
2026-05-04 15:26 25.78757 -80.31383 17 ft 4 kts 178°
2026-05-04 15:26 25.78737 -80.31382 17 ft 1 kts 178°
2026-05-04 15:27 25.78729 -80.31381 16 ft 2 kts 178°
2026-05-04 15:27 25.78626 -80.31349 16 ft 15 kts 121°
2026-05-04 15:28 25.78622 -80.31264 17 ft 7 kts 88°
2026-05-04 15:28 25.78636 -80.30932 17 ft 85 kts 87°
2026-05-04 15:28 25.78752 -80.28606 496 ft 186 kts 88°
2026-05-04 15:29 25.78684 -80.27127 1399 ft 196 kts 91°
2026-05-04 15:30 25.77617 -80.21042 4279 ft 238 kts 104°
2026-05-04 15:30 25.75607 -80.15389 5836 ft 285 kts 121°
2026-05-04 15:31 25.73611 -80.11510 7392 ft 294 kts 120°
2026-05-04 15:31 25.72724 -80.09437 8141 ft 300 kts 113°
2026-05-04 15:32 25.70536 -80.02685 10270 ft 320 kts 111°
2026-05-04 15:32 25.68929 -79.97715 10721 ft 366 kts 111°
2026-05-04 15:33 25.67095 -79.92146 11399 ft 397 kts 112°
2026-05-04 15:34 25.64181 -79.83366 13225 ft 412 kts 113°
2026-05-04 15:34 25.63180 -79.80359 13802 ft 418 kts 113°
2026-05-04 15:34 25.61149 -79.74262 14930 ft 425 kts 113°
2026-05-04 15:35 25.59070 -79.68093 16083 ft 429 kts 114°
2026-05-04 15:35 25.57962 -79.65010 16620 ft 432 kts 115°
2026-05-04 15:35 25.56824 -79.61920 17137 ft 435 kts 115°
2026-05-04 15:36 25.54521 -79.55708 18166 ft 441 kts 115°
2026-05-04 15:36 25.53355 -79.52550 18619 ft 444 kts 115°
2026-05-04 15:36 25.52184 -79.49371 19042 ft 447 kts 115°
2026-05-04 15:37 25.51008 -79.46168 19466 ft 450 kts 115°
2026-05-04 15:37 25.49824 -79.42942 19871 ft 453 kts 115°
2026-05-04 15:37 25.48635 -79.39701 20277 ft 456 kts 115°
2026-05-04 15:37 25.47437 -79.36438 20698 ft 459 kts 115°
2026-05-04 15:38 25.46229 -79.33152 21093 ft 462 kts 115°
2026-05-04 15:38 25.45015 -79.29852 21482 ft 465 kts 115°
2026-05-04 15:38 25.43793 -79.26531 21870 ft 468 kts 114°
2026-05-04 15:38 25.42560 -79.23185 22266 ft 470 kts 114°
2026-05-04 15:39 25.41323 -79.19829 22643 ft 473 kts 114°
2026-05-04 15:39 25.40075 -79.16449 23018 ft 475 kts 114°
2026-05-04 15:39 25.37561 -79.09648 23722 ft 480 kts 114°
2026-05-04 15:40 25.36289 -79.06210 24004 ft 483 kts 114°
2026-05-04 15:40 25.35011 -79.02760 24269 ft 486 kts 114°
2026-05-04 15:40 25.33726 -78.99292 24562 ft 488 kts 114°
2026-05-04 15:40 25.32434 -78.95808 24809 ft 491 kts 114°
2026-05-04 15:41 25.31144 -78.92337 24846 ft 493 kts 114°
2026-05-04 15:41 25.29842 -78.88831 24840 ft 491 kts 115°
2026-05-04 15:41 25.28541 -78.85330 24843 ft 491 kts 115°
2026-05-04 15:41 25.27242 -78.81840 24851 ft 491 kts 115°
2026-05-04 15:42 25.25957 -78.78390 24853 ft 492 kts 115°
2026-05-04 15:42 25.24653 -78.74892 24848 ft 492 kts 115°
2026-05-04 15:42 25.23348 -78.71396 24848 ft 493 kts 115°
2026-05-04 15:42 25.22043 -78.67901 24845 ft 492 kts 115°
2026-05-04 15:43 25.20737 -78.64406 24845 ft 492 kts 115°
2026-05-04 15:43 25.19431 -78.60914 24848 ft 492 kts 115°
2026-05-04 15:43 25.18129 -78.57435 24848 ft 491 kts 115°
2026-05-04 15:43 25.16782 -78.53970 24845 ft 490 kts 116°
2026-05-04 15:44 25.15385 -78.50544 24845 ft 490 kts 117°
2026-05-04 15:44 25.13962 -78.47127 24849 ft 489 kts 117°
2026-05-04 15:44 25.12536 -78.43717 24848 ft 489 kts 117°
2026-05-04 15:44 25.11118 -78.40315 24848 ft 489 kts 117°
2026-05-04 15:45 25.09703 -78.36905 24851 ft 489 kts 117°
2026-05-04 15:45 25.08289 -78.33484 24850 ft 489 kts 117°
2026-05-04 15:45 25.06878 -78.30060 24852 ft 489 kts 117°
2026-05-04 15:45 25.05471 -78.26645 24849 ft 489 kts 117°
2026-05-04 15:46 25.04063 -78.23228 24849 ft 489 kts 117°
2026-05-04 15:46 25.02653 -78.19808 24850 ft 490 kts 117°
2026-05-04 15:46 25.01245 -78.16396 24847 ft 490 kts 117°
2026-05-04 15:46 24.99833 -78.12979 24848 ft 490 kts 117°
2026-05-04 15:47 24.98431 -78.09590 24850 ft 490 kts 117°
2026-05-04 15:47 24.97017 -78.06176 24849 ft 490 kts 117°
2026-05-04 15:47 24.95598 -78.02750 24851 ft 490 kts 117°
2026-05-04 15:47 24.94179 -77.99328 24845 ft 491 kts 117°
2026-05-04 15:48 24.92760 -77.95907 24849 ft 490 kts 117°
2026-05-04 15:48 24.91342 -77.92494 24854 ft 490 kts 117°
2026-05-04 15:48 24.88504 -77.85668 24853 ft 489 kts 117°
2026-05-04 15:49 24.87086 -77.82259 24861 ft 489 kts 117°
2026-05-04 15:49 24.85670 -77.78860 24857 ft 489 kts 117°
2026-05-04 15:49 24.84265 -77.75490 24855 ft 489 kts 117°
2026-05-04 15:49 24.82846 -77.72089 24855 ft 489 kts 117°
2026-05-04 15:50 24.81425 -77.68684 24858 ft 489 kts 117°
2026-05-04 15:50 24.80005 -77.65287 24856 ft 489 kts 117°
2026-05-04 15:50 24.78587 -77.61894 24856 ft 489 kts 117°
2026-05-04 15:50 24.77165 -77.58495 24858 ft 489 kts 117°
2026-05-04 15:51 24.75744 -77.55101 24849 ft 489 kts 117°
2026-05-04 15:51 24.74305 -77.51710 24854 ft 488 kts 118°
2026-05-04 15:51 24.72809 -77.48358 24850 ft 488 kts 119°
2026-05-04 15:51 24.71277 -77.45025 24851 ft 488 kts 120°
2026-05-04 15:52 24.69733 -77.41700 24846 ft 488 kts 120°
2026-05-04 15:52 24.68189 -77.38377 24847 ft 488 kts 120°
2026-05-04 15:52 24.66652 -77.35056 24848 ft 488 kts 119°
2026-05-04 15:52 24.65120 -77.31731 24848 ft 488 kts 119°
2026-05-04 15:53 24.63592 -77.28408 24847 ft 487 kts 119°
2026-05-04 15:53 24.62068 -77.25083 24846 ft 487 kts 119°
2026-05-04 15:53 24.60540 -77.21752 24847 ft 487 kts 119°
2026-05-04 15:53 24.59017 -77.18431 24846 ft 487 kts 119°
2026-05-04 15:54 24.57510 -77.15147 24847 ft 487 kts 119°
2026-05-04 15:54 24.55985 -77.11825 24847 ft 487 kts 119°
2026-05-04 15:54 24.54459 -77.08505 24847 ft 487 kts 119°
2026-05-04 15:54 24.52910 -77.05141 24847 ft 487 kts 119°
2026-05-04 15:55 24.51384 -77.01826 24851 ft 487 kts 119°
2026-05-04 15:55 24.49876 -76.98554 24849 ft 486 kts 119°
2026-05-04 15:55 24.48350 -76.95244 24851 ft 486 kts 119°
2026-05-04 15:55 24.46822 -76.91934 24849 ft 486 kts 119°
2026-05-04 15:56 24.45294 -76.88625 24848 ft 486 kts 119°
2026-05-04 15:56 24.43761 -76.85310 24850 ft 486 kts 119°
2026-05-04 15:56 24.42229 -76.81996 24850 ft 486 kts 119°
2026-05-04 15:56 24.40697 -76.78687 24850 ft 486 kts 119°
2026-05-04 15:57 24.39164 -76.75377 24849 ft 486 kts 119°
2026-05-04 15:57 24.37632 -76.72071 24850 ft 486 kts 119°
2026-05-04 15:57 24.36097 -76.68763 24849 ft 486 kts 119°
2026-05-04 15:57 24.34587 -76.65509 24849 ft 486 kts 119°
2026-05-04 15:58 24.33054 -76.62210 24851 ft 485 kts 119°
2026-05-04 15:58 24.31524 -76.58917 24848 ft 485 kts 119°
2026-05-04 15:58 24.29988 -76.55615 24847 ft 485 kts 119°
2026-05-04 15:58 24.28453 -76.52317 24848 ft 485 kts 119°
2026-05-04 15:59 24.26919 -76.49025 24848 ft 485 kts 119°
2026-05-04 15:59 24.25382 -76.45727 24848 ft 485 kts 119°
2026-05-04 15:59 24.23845 -76.42431 24848 ft 485 kts 119°
2026-05-04 15:59 24.22308 -76.39139 24848 ft 485 kts 119°
2026-05-04 16:00 24.20772 -76.35851 24850 ft 485 kts 120°
2026-05-04 16:00 24.19237 -76.32568 24849 ft 485 kts 120°
2026-05-04 16:00 24.17695 -76.29271 24850 ft 485 kts 120°
2026-05-04 16:00 24.16155 -76.25981 24852 ft 485 kts 120°
2026-05-04 16:01 24.14614 -76.22692 24851 ft 485 kts 120°
2026-05-04 16:01 24.13096 -76.19452 24852 ft 485 kts 120°
2026-05-04 16:01 24.11555 -76.16168 24853 ft 485 kts 120°
2026-05-04 16:01 24.10015 -76.12886 24853 ft 485 kts 120°
2026-05-04 16:02 24.08473 -76.09603 24849 ft 485 kts 120°
2026-05-04 16:02 24.06929 -76.06318 24846 ft 484 kts 120°
2026-05-04 16:02 24.03852 -75.99779 24851 ft 483 kts 120°
2026-05-04 16:03 24.02309 -75.96502 24851 ft 482 kts 120°
2026-05-04 16:03 24.00770 -75.93238 24854 ft 482 kts 120°
2026-05-04 16:03 23.99233 -75.89980 24849 ft 482 kts 120°
2026-05-04 16:03 23.97697 -75.86724 24848 ft 482 kts 120°
2026-05-04 16:04 23.96157 -75.83465 24858 ft 482 kts 120°
2026-05-04 16:04 23.93072 -75.76941 24856 ft 484 kts 120°
2026-05-04 16:04 23.91537 -75.73699 25050 ft 488 kts 120°
2026-05-04 16:05 23.89974 -75.70400 25408 ft 488 kts 120°
2026-05-04 16:05 23.88421 -75.67122 25752 ft 488 kts 120°
2026-05-04 16:05 23.85277 -75.60497 26341 ft 492 kts 120°
2026-05-04 16:06 23.83703 -75.57182 26723 ft 492 kts 120°
2026-05-04 16:06 23.79526 -75.48393 27878 ft 488 kts 120°
2026-05-04 16:07 23.77428 -75.43989 28375 ft 488 kts 121°
2026-05-04 16:07 23.72738 -75.34155 29646 ft 486 kts 121°
2026-05-04 16:08 23.71175 -75.30882 30061 ft 486 kts 121°
2026-05-04 16:08 23.66512 -75.21131 31100 ft 484 kts 121°
2026-05-04 16:09 23.63390 -75.14613 31743 ft 484 kts 122°
2026-05-04 16:09 23.60271 -75.08110 32415 ft 484 kts 122°
2026-05-04 16:10 23.57148 -75.01609 33025 ft 484 kts 122°
2026-05-04 16:11 23.52466 -74.91876 33962 ft 483 kts 123°
2026-05-04 16:11 23.50903 -74.88632 34225 ft 483 kts 123°
2026-05-04 16:12 23.46219 -74.78922 34939 ft 484 kts 123°
2026-05-04 16:12 23.41473 -74.69108 35043 ft 488 kts 123°
2026-05-04 16:13 23.35238 -74.56227 35044 ft 480 kts 123°
2026-05-04 16:14 23.29010 -74.43410 35051 ft 479 kts 123°
2026-05-04 16:16 23.21738 -74.28482 35047 ft 479 kts 123°
2026-05-04 16:16 23.16979 -74.18750 35061 ft 493 kts 122°
2026-05-04 16:17 23.13728 -74.12105 35059 ft 502 kts 122°
2026-05-04 16:18 23.07103 -73.98579 35042 ft 508 kts 122°
2026-05-04 16:19 22.98798 -73.81681 35043 ft 506 kts 122°
2026-05-04 16:20 22.90517 -73.64893 35052 ft 503 kts 122°
2026-05-04 16:22 22.82275 -73.48240 35056 ft 500 kts 122°
2026-05-04 16:23 22.72429 -73.28420 35049 ft 498 kts 122°
2026-05-04 16:25 22.62565 -73.08642 35053 ft 497 kts 122°
2026-05-04 16:26 22.51048 -72.85644 35048 ft 496 kts 122°
2026-05-04 16:28 22.42819 -72.69276 35050 ft 494 kts 121°
2026-05-04 16:29 22.31327 -72.46504 35051 ft 492 kts 121°
2026-05-04 16:31 22.23157 -72.30376 35049 ft 490 kts 121°
2026-05-04 16:32 22.13317 -72.11016 35047 ft 490 kts 121°
2026-05-04 16:33 22.06772 -71.98179 35045 ft 490 kts 121°
2026-05-04 16:34 22.01819 -71.88487 35046 ft 490 kts 121°
2026-05-04 16:35 21.91961 -71.69245 35046 ft 490 kts 121°
2026-05-04 16:36 21.87010 -71.59610 35044 ft 490 kts 121°
2026-05-04 16:37 21.82059 -71.49990 35049 ft 490 kts 121°
2026-05-04 16:38 21.75452 -71.37181 35047 ft 489 kts 121°
2026-05-04 16:39 21.67193 -71.21210 35052 ft 488 kts 121°
2026-05-04 16:40 21.60588 -71.08471 35048 ft 487 kts 121°
2026-05-04 16:41 21.52313 -70.92619 35046 ft 486 kts 121°
2026-05-04 16:43 21.44004 -70.76799 35045 ft 486 kts 121°
2026-05-04 16:43 21.39027 -70.67338 35047 ft 485 kts 121°
2026-05-04 16:45 21.29106 -70.48525 35048 ft 484 kts 121°
2026-05-04 16:46 21.20810 -70.32847 35045 ft 483 kts 121°
2026-05-04 16:47 21.14155 -70.20299 35053 ft 482 kts 121°
2026-05-04 16:48 21.07535 -70.07848 35051 ft 482 kts 121°
2026-05-04 16:49 21.00896 -69.95388 35049 ft 481 kts 121°
2026-05-04 16:50 20.94250 -69.82940 35053 ft 481 kts 121°
2026-05-04 16:51 20.89267 -69.73625 35055 ft 481 kts 120°
2026-05-04 16:52 20.82651 -69.61269 35055 ft 480 kts 120°
2026-05-04 16:53 20.77663 -69.51964 35054 ft 480 kts 120°
2026-05-04 16:54 20.71016 -69.39592 35052 ft 480 kts 120°
2026-05-04 16:55 20.61049 -69.21091 35055 ft 480 kts 120°
2026-05-04 16:56 20.52700 -69.05640 35056 ft 480 kts 120°
2026-05-04 16:57 20.47684 -68.96378 35055 ft 480 kts 120°
2026-05-04 16:58 20.40992 -68.84042 35055 ft 480 kts 120°
2026-05-04 17:00 20.31508 -68.66606 35062 ft 480 kts 120°
2026-05-04 17:01 20.23015 -68.51388 35060 ft 479 kts 123°
2026-05-04 17:02 20.15524 -68.39660 35063 ft 478 kts 124°
2026-05-04 17:03 20.09946 -68.30857 35062 ft 478 kts 123°
2026-05-04 17:03 20.04416 -68.22089 35064 ft 477 kts 123°
2026-05-04 17:04 19.97017 -68.10376 35067 ft 477 kts 123°
2026-05-04 17:05 19.89605 -67.98673 35063 ft 477 kts 123°
2026-05-04 17:06 19.84045 -67.89911 35063 ft 477 kts 123°
2026-05-04 17:07 19.79080 -67.82095 35062 ft 477 kts 123°
2026-05-04 17:07 19.74754 -67.75293 35062 ft 477 kts 123°
2026-05-04 17:08 19.69184 -67.66547 35058 ft 477 kts 123°
2026-05-04 17:09 19.65486 -67.60747 35059 ft 477 kts 123°
2026-05-04 17:09 19.61768 -67.54921 35058 ft 477 kts 123°
2026-05-04 17:10 19.52455 -67.40355 35061 ft 477 kts 123°
2026-05-04 17:11 19.48724 -67.34530 35060 ft 477 kts 123°
2026-05-04 17:12 19.43157 -67.25847 35062 ft 477 kts 123°
2026-05-04 17:13 19.33829 -67.11327 35056 ft 477 kts 124°
2026-05-04 17:14 19.26364 -66.99731 35057 ft 477 kts 124°
2026-05-04 17:15 19.20753 -66.91030 35054 ft 477 kts 123°
2026-05-04 17:16 19.13276 -66.79452 35055 ft 477 kts 124°
2026-05-04 17:17 19.05783 -66.67873 35051 ft 477 kts 124°
2026-05-04 17:18 18.98304 -66.56335 35052 ft 477 kts 124°
2026-05-04 17:19 18.91010 -66.44610 35053 ft 477 kts 117°
2026-05-04 17:20 18.84952 -66.32124 35048 ft 478 kts 116°
2026-05-04 17:20 18.80357 -66.22762 35047 ft 479 kts 117°
2026-05-04 17:21 18.74172 -66.10318 35050 ft 479 kts 117°
2026-05-04 17:22 18.71096 -66.04136 35049 ft 479 kts 117°
2026-05-04 17:23 18.64898 -65.91693 35056 ft 479 kts 117°